Starlink 30307

operational
NORAD ID: 57747 Int'l Des: 2023-131 Owner: SPXS Country: US Constellation: starlink
LEOCIRCULAR

Starlink 30307について

説明を読み込み中...

リアルタイム位置

3D地球を読み込み中...

次回通過

高度履歴

Altitude vs Time

uPlot chart will show altitude changes over time

軌道要素

1 57747U 23131R 25258.11189795 -.00001152 00000-0 -70269-4 0 9992
2 57747 43.0002 45.7485 0001295 78.5686 281.5302 15.02522965113510
Epoch: Sep 15, 2025 • Age: 15 hours

現在のステータス

高度 558.4 km
速度 7.59 km/s
衛星直下点 23.77°N, 65.83°W
打ち上げ日 Sep 1, 2023
運用期間 2 years
タイプ internet

技術仕様

分類 Payload
質量 730.00 kg
乾燥質量 700.00 kg
総質量 730.00 kg
長さ 0.30 m
直径 4.10 m
スパン 29.00 m
形状 Box + pan
製造者 SPXS
バスタイプ Starlink V2M
フェーズステータス In Orbit
所有者/国 SPXS/US

大規模コンステレーション

Loading constellations...